SCP
0 0 0 0 0 0 0 0 0 0 0 0 0 0 0 0 0 0 0 0 0 0 0 0 0 0 0 0 0 0 0 0 0 0 0 0 0 0 0 0 0 0 0
0 0 0 0 0 0 0 0 0 0 0 0 0 0 0 0 0 0 0 0 0 0 0 0 0 0 0 0 0 0 0 0 0 0 0 0 0 0 0 0 0 0 0
0 0 0 0 0 0 0 0 0 0 0 0 0 0 0 0 0 0 0 0 0 0 0 0 0 0 0 0 0 0 0 0 0 0 0 0 0 0 0 0 0 0 0
0 0 0 0 0 0 0 0 0 0 0 0 0 0 0 0 0 0 0 0 0 0 0 0 0 0 0 0 0 0 0 0 0 0 0 0 0 0 0 0 0 0 0
0 0 0 0 0 0 0 0 0 0 0 0 0 0 0 0 0 0 0 0 0 0 0 0 0 0 0 0 0 0 0 0 0 0 0 0 0 0 0 0 0 0 0
0 0 0 0 0 0 0 0 0 0 0 0 0 0 0 0 0 0 0 0 0 0 0 0 0 0 0 0 0 0 0 0 0 0 0 0 0 0 0 0 0 0 0
0 0 0 0 0 0 0 0 0 0 0 0 0 0 0 0 0 0 0 0 0 0 0 0 0 0 0 0 0 0 0 0 0 0 0 0 0 0 0 0 0 0 0
0 0 0 0 0 0 0 0 0 0 0 0 0 0 0 0 0 0 0 0 0 0 0 0 0 0 0 0 0 0 0 0 0 0 0 0 0 0 0 0 0 0 0
0 0 0 0 0 0 0 0 0 0 0 0 0 0 0 0 0 0 0 0 0 0 0 0 0 0 0 0 0 0 0 0 0 0 0 0 0 0 0 0 0 0 0
0 0 0 0 0 0 0 0 0 0 0 0 0 0 0 0 0 0 0 0 0 0 0 0 0 0 0 0 0 0 0 0 0 0 0 0 0 0 0 0 0 0 0
0 0 0 0 0 0 0 0 0 0 0 0 0 0 0 0 0 0 0 0 0 0 0 0 0 0 0 0 0 0 0 0 0 0 0 0 0 0 0 0 0 0 0
0 0 0 0 0 0 0 0 0 0 0 0 0 0 0 0 0 0 0 0 0 0 0 0 0 0 0 0 0 0 0 0 0 0 0 0 0 0 0 0 0 0 0
1 1 1 0 0 0 0 0 0 0 0 0 0 0 0 0 0 0 0 0 0 0 0 0 0 0 0 0 0 0 0 0 0 0 0 0 0 0 0 0 0 0 0
1 1 1 1 0 0 0 0 0 0 0 0 0 0 0 0 0 0 0 0 0 0 0 0 0 0 0 0 0 0 0 0 0 0 0 0 0 0 0 0 0 0 0
1 1 1 1 1 0 0 0 0 0 0 0 0 0 0 0 0 0 0 0 0 0 0 0 0 0 0 0 0 0 0 0 0 0 0 0 0 0 0 0 0 0 0
1 1 1 1 1 1 0 0 0 0 0 0 0 0 0 0 0 0 0 0 0 0 0 0 0 0 0 0 0 0 0 0 0 0 0 0 0 0 0 0 0 0 0
1 1 1 1 1 1 0 0 0 0 0 0 0 0 0 0 0 0 0 0 0 0 0 0 0 0 0 0 0 0 0 0 0 0 0 0 0 0 0 0 0 0 0
2 2 1 1 1 1 1 0 0 0 0 0 0 0 0 0 0 0 0 0 0 0 0 0 0 0 0 0 0 0 0 0 0 0 0 0 0 0 0 0 0 0 0
2 2 2 1 1 1 1 1 0 0 0 0 0 0 0 0 0 0 0 0 0 0 0 0 0 0 0 0 0 0 0 0 0 0 0 0 0 0 0 0 0 0 0
2 2 2 1 1 1 1 1 1 0 0 0 0 0 0 0 0 0 0 0 0 0 0 0 0 0 0 0 0 0 0 0 0 0 0 0 0 0 0 0 0 0 0
2 2 2 2 1 1 1 1 1 1 0 0 0 0 0 0 0 0 0 0 0 0 0 0 0 0 0 0 0 0 0 0 0 0 0 0 0 0 0 0 0 0 0
2 2 2 2 1 1 1 1 1 1 0 0 0 0 0 0 0 0 0 0 0 0 0 0 0 0 0 0 0 0 0 0 0 0 0 0 0 0 0 0 0 0 0
2 2 2 2 2 1 1 1 1 1 1 0 0 1 1 0 0 0 0 0 0 0 0 0 0 0 0 0 0 0 0 0 0 0 0 0 0 0 0 0 0 0 0
2 2 2 2 2 1 1 1 1 1 1 1 1 1 1 1 0 0 0 0 0 0 0 0 0 0 0 0 0 0 0 0 0 0 0 0 0 0 0 0 0 0 0
2 2 2 2 2 1 1 1 1 1 1 1 1 1 1 1 0 0 0 0 0 0 0 0 0 0 0 0 0 0 0 0 0 0 0 0 0 0 0 0 0 0 0
2 2 2 2 2 1 1 1 1 1 1 1 1 1 1 0 0 0 0 0 0 0 0 0 0 0 0 0 0 0 0 0 0 0 0 0 0 0 0 0 0 0 0
Wind_Speed
16 14 14 13 13 13 13 13 13 13 12 12 12 13 13 13 13 13 14 13 13 13 13 13 14 14 14 14 14 14 14 14 14 15 15 15 15 14 14 15 15 11 15
18 15 14 14 13 13 13 13 12 12 12 12 12 12 12 13 13 13 13 13 13 13 13 13 13 13 13 13 13 12 12 13 13 15 16 15 14 13 12 13 15 10 14
18 16 14 13 14 13 13 12 12 12 12 12 12 12 12 12 12 13 13 13 13 13 13 13 13 13 13 12 12 11 11 11 11 13 13 10 11 14 15 16 16 15 14
18 15 14 14 13 13 12 12 12 12 11 11 11 11 12 12 12 13 13 13 13 13 13 13 13 13 12 12 10 9 9 8 9 9 7 9 9 14 15 15 15 14 14
17 16 14 14 13 13 12 11 12 11 11 11 11 12 12 12 12 13 12 13 13 13 13 13 13 12 11 10 8 7 5 5 5 6 8 9 8 12 14 14 14 14 14
17 16 14 14 13 12 11 11 11 11 11 11 11 11 12 12 12 12 12 12 13 13 13 12 12 11 10 9 7 4 2 1 2 6 8 9 8 12 14 14 14 14 13
18 16 14 14 13 12 11 11 11 11 11 11 11 11 11 11 12 12 12 12 12 12 12 12 11 10 9 7 5 3 2 2 3 8 8 9 8 11 13 13 13 13 12
18 17 14 14 13 12 11 11 11 11 11 11 11 11 11 11 11 12 11 11 12 11 11 11 11 10 8 6 3 2 3 4 7 11 10 9 10 11 12 12 12 12 11
18 17 14 13 12 12 11 11 11 10 10 10 10 10 11 11 11 11 11 11 11 10 10 10 10 9 7 4 1 2 4 6 3 7 11 8 10 11 11 11 11 11 11
15 15 14 14 12 11 10 11 10 10 10 10 9 9 10 10 10 10 10 9 9 9 9 9 9 8 6 4 1 3 5 5 3 9 8 8 11 11 11 10 10 10 10
11 11 11 13 11 10 11 11 10 9 9 9 8 9 8 6 8 7 10 9 8 8 8 8 7 7 6 4 3 4 5 1 5 7 7 11 10 11 10 10 10 10 10
10 10 10 10 9 8 8 8 7 7 7 5 5 6 4 3 4 8 9 9 8 7 7 7 7 6 5 4 5 5 2 2 5 7 7 12 10 10 10 9 9 9 9
9 8 11 9 7 6 6 5 4 3 4 4 4 4 3 3 4 6 5 5 5 6 5 6 6 5 4 2 2 2 1 2 4 6 8 11 10 10 9 9 8 8 8
8 8 9 9 6 4 4 4 4 3 3 3 3 3 3 1 2 3 2 4 4 3 2 3 2 2 2 1 1 1 2 3 4 6 7 11 10 9 9 8 8 8 8
7 7 8 8 6 4 3 1 3 3 4 5 4 1 2 2 2 2 1 0 1 2 3 1 1 2 1 1 0 2 2 3 5 7 6 10 10 9 9 9 8 8 8
8 7 8 7 7 4 3 1 1 2 2 3 4 3 2 1 2 2 1 0 0 1 1 2 1 2 1 0 1 2 1 2 5 6 7 7 10 9 9 9 9 8 8
8 7 7 7 7 5 4 3 2 2 3 2 3 4 2 2 2 2 1 1 1 1 2 1 0 1 1 1 1 1 1 2 3 4 6 6 7 9 10 9 9 9 9
8 8 7 7 8 5 4 3 1 1 2 2 3 3 3 3 2 1 2 1 1 1 1 1 1 1 1 1 0 1 1 2 2 3 4 6 6 7 9 11 10 10 10
8 8 7 5 8 7 5 3 2 1 1 1 1 2 3 4 3 3 1 1 1 1 1 2 2 1 1 0 1 1 1 2 3 4 3 5 5 7 7 10 12 11 12
8 8 7 6 6 6 5 3 2 3 2 2 2 2 3 3 4 3 2 2 2 1 1 1 1 0 1 2 3 2 2 3 3 3 4 4 4 6 8 9 8 9 13
8 8 7 7 6 5 4 4 4 4 3 3 4 5 4 4 3 2 1 2 2 2 2 2 1 2 2 2 1 1 2 3 4 3 4 3 4 4 6 8 7 6 7
9 9 8 7 7 7 4 4 3 3 3 3 3 4 5 4 3 4 3 3 3 2 2 1 1 1 2 2 2 1 1 2 2 5 4 4 4 3 4 7 6 5 5
10 9 7 7 7 6 5 3 2 2 2 2 3 3 4 4 4 3 3 3 2 3 3 3 3 3 3 2 2 2 1 2 2 2 3 3 3 3 3 3 6 6 6
9 9 6 6 6 5 5 4 4 4 3 3 2 2 3 4 4 4 3 3 3 2 2 4 4 3 3 2 2 2 2 1 1 1 2 2 4 4 4 4 5 6 6
9 9 7 6 5 4 4 4 4 4 3 2 2 3 3 3 4 4 4 3 3 3 3 3 2 2 2 2 2 1 1 2 3 2 2 2 2 2 3 3 3 3 5
9 8 8 7 5 4 4 4 4 4 3 2 3 3 3 3 3 4 4 3 3 3 2 2 2 3 2 2 1 1 1 2 2 2 2 2 3 3 4 3 3 3 4
Wind_Direction
104 105 103 102 102 101 98 96 93 92 90 87 84 82 82 84 85 86 89 91 92 94 94 94 92 90 88 88 90 91 92 94 96 98 98 98 99 101 107 110 103 99 104
108 107 105 104 104 103 100 98 96 94 91 89 87 86 86 87 88 89 91 92 93 94 96 96 95 94 93 94 96 97 99 102 105 106 105 99 97 100 105 104 101 108 109
111 114 110 106 105 103 101 100 98 96 94 92 91 89 89 90 92 94 94 93 92 93 95 97 96 96 97 98 100 102 109 113 119 123 117 105 100 99 102 104 108 111 108
118 117 109 109 106 104 103 101 99 96 94 94 94 92 91 91 92 94 93 93 93 94 96 97 97 98 100 101 104 108 116 123 131 134 115 107 103 103 107 111 111 110 108
106 106 111 113 110 108 106 104 102 99 97 95 94 93 93 94 93 94 94 95 95 95 96 97 99 100 102 104 106 109 117 128 137 113 92 90 93 110 112 114 113 111 109
118 113 115 116 114 111 109 107 105 103 100 97 96 95 95 95 96 96 96 96 97 97 98 98 100 102 104 107 109 105 85 99 117 105 101 102 103 112 114 114 113 112 111
117 117 120 119 117 115 114 111 108 105 103 102 101 99 98 98 98 97 97 97 97 98 98 99 102 103 104 106 105 78 29 354 117 104 96 95 103 111 113 113 112 112 114
121 119 121 122 121 118 116 115 113 111 109 107 106 105 104 104 102 101 100 100 99 99 100 101 102 102 105 105 93 23 349 337 103 105 100 100 110 113 115 115 114 115 116
122 127 135 134 129 126 122 119 117 117 115 115 115 114 113 112 111 107 103 102 103 105 105 105 105 106 111 113 97 339 340 341 88 116 111 110 116 116 116 118 120 121 121
129 134 141 140 140 142 133 129 126 126 125 126 127 128 125 123 122 122 115 107 109 112 114 114 114 117 123 132 188 310 320 319 120 104 104 116 122 122 121 121 121 122 124
126 132 137 136 146 148 142 138 141 141 141 144 146 145 148 150 139 142 114 120 118 121 127 130 132 138 148 170 214 271 294 271 90 92 99 121 128 129 126 125 125 126 128
133 137 133 135 142 146 137 143 155 158 155 175 151 161 176 157 130 120 129 134 136 138 147 156 157 170 191 186 198 230 252 122 105 105 116 130 131 133 132 132 133 135 135
145 140 135 129 138 141 130 157 149 145 152 159 152 162 170 150 135 132 150 150 163 172 180 165 184 203 203 206 176 199 136 87 100 106 126 134 136 139 140 142 143 144 144
153 140 132 129 138 129 128 140 150 147 151 144 156 193 149 132 129 134 156 166 173 180 180 171 186 176 153 147 153 117 113 98 102 110 134 141 144 148 148 148 148 149 149
151 144 128 128 132 125 112 172 152 145 149 144 148 176 141 141 125 113 106 151 193 153 160 147 128 109 98 131 145 99 81 102 120 122 132 150 151 154 157 158 159 160 161
159 152 137 140 140 141 145 163 133 151 133 140 145 147 152 123 121 131 148 229 305 79 101 111 124 124 124 37 57 75 63 107 114 132 141 157 164 166 169 171 172 174 176
158 152 147 151 151 159 170 192 184 184 161 142 123 131 146 130 126 154 156 203 212 122 114 103 108 130 169 158 136 133 117 86 115 135 150 161 169 178 181 182 182 183 186
157 153 163 166 156 164 177 196 205 213 129 129 135 144 153 143 160 199 190 197 184 175 161 154 221 155 112 105 142 203 143 143 160 172 168 173 171 174 187 193 190 191 196
154 154 169 165 158 169 175 187 211 151 98 130 141 147 162 175 183 216 186 174 193 199 192 202 159 158 170 190 223 201 200 189 188 205 194 190 177 169 174 188 194 196 202
153 156 167 172 165 167 172 186 203 180 174 187 180 168 176 198 198 211 188 184 213 205 181 133 119 176 212 212 247 200 207 212 199 203 210 205 190 184 174 175 186 203 208
158 162 171 179 172 173 178 186 194 194 192 195 191 179 191 210 206 215 232 171 224 211 183 190 165 206 230 214 245 263 234 224 210 203 215 210 201 192 172 170 186 190 196
164 167 175 182 178 184 185 184 190 190 202 197 199 178 191 198 206 209 207 214 206 197 196 199 190 238 247 210 199 226 283 282 252 218 201 210 208 189 193 186 186 185 186
167 174 178 177 177 186 181 181 185 174 213 202 194 180 198 200 213 233 205 227 217 202 194 205 201 214 242 251 217 177 186 240 263 265 223 211 194 189 208 198 187 184 188
167 168 166 166 171 178 178 188 190 194 205 204 195 183 194 203 213 219 222 221 231 235 197 213 206 203 227 250 253 222 213 185 222 281 286 246 207 200 212 217 202 187 193
160 160 159 157 161 168 179 189 202 212 212 203 189 183 197 206 215 225 219 213 220 231 225 221 184 196 220 240 256 254 252 236 230 222 249 256 246 212 213 215 212 192 190
156 157 155 153 159 169 185 190 202 219 222 214 197 189 203 204 213 218 215 207 217 223 231 222 200 208 222 245 268 281 266 252 253 247 251 254 247 232 214 198 208 196 184